DW2789 Weather Reports


Display with metric or nautical units.
time (UTC)temp
F
wind
direction
speed
MPH
gust
MPH
rain 1hr
in
rain 24hr
in
rain mn
in
humidity
%
barometer
mb
20260509001943 71 269 14.0 22.0 0.00 0.00 0.00 27 1015.3
20260509000949 72 252 12.0 20.0 0.00 0.00 0.00 26 1015.2
20260508235932 72 225 10.0 17.0 0.00 0.00 0.00 27 1015.2
20260508234937 72 222 10.0 20.0 0.00 0.00 0.00 27 1015.1
20260508233942 71 206 7.0 13.0 0.00 0.00 0.00 26 1015.2
20260508232945 70 198 1.0 9.0 0.00 0.00 0.00 26 1015.3
20260508231931 71 198 10.0 17.0 0.00 0.00 0.00 23 1015.3
20260508230944 71 185 8.0 19.0 0.00 0.00 0.00 22 1015.2
20260508230020 72 159 13.0 24.0 0.00 0.00 0.00 20 1015.3
20260508225002 73 143 11.0 17.0 0.00 0.00 0.00 24 1015.4
20260508223940 73 136 11.0 19.0 0.00 0.00 0.00 25 1015.5
20260508222939 73 126 12.0 17.0 0.00 0.00 0.00 25 1015.4
20260508222002 72 122 16.0 21.0 0.00 0.00 0.00 24 1015.5
20260508220931 72 116 12.0 22.0 0.00 0.00 0.00 29 1015.6
20260508215953 72 114 12.0 24.0 0.00 0.00 0.00 32 1015.6
20260508214939 71 111 16.0 22.0 0.00 0.00 0.00 32 1015.4
20260508213942 71 123 13.0 21.0 0.00 0.00 0.00 33 1015.5
20260508212948 71 124 9.0 15.0 0.00 0.00 0.00 34 1015.6
20260508211955 71 128 5.0 15.0 0.00 0.00 0.00 39 1015.6
20260508210959 70 130 10.0 18.0 0.00 0.00 0.00 39 1015.5
20260508205941 70 129 7.0 13.0 0.00 0.00 0.00 39 1015.4
20260508204944 70 130 4.0 10.0 0.00 0.00 0.00 39 1015.3
20260508203929 70 129 8.0 12.0 0.00 0.00 0.00 40 1015.3
20260508202936 70 130 10.0 15.0 0.00 0.00 0.00 39 1015.3
20260508201937 70 131 9.0 17.0 0.00 0.00 0.00 39 1015.3
20260508200938 70 133 10.0 15.0 0.00 0.00 0.00 39 1015.3
20260508195939 70 134 8.0 13.0 0.00 0.00 0.00 40 1015.3
20260508194938 69 133 9.0 16.0 0.00 0.00 0.00 37 1015.4
20260508193939 70 136 8.0 16.0 0.00 0.00 0.00 37 1015.3
20260508192939 70 136 6.0 14.0 0.00 0.00 0.00 39 1015.3
20260508191941 70 136 7.0 13.0 0.00 0.00 0.00 38 1015.5
20260508190936 69 136 7.0 16.0 0.00 0.00 0.00 38 1015.5
20260508185942 67 136 1.0 8.0 0.00 0.00 0.00 41 1015.8
20260508184948 66 136 1.0 6.0 0.00 0.00 0.00 42 1016.0
20260508183930 66 136 0.0 0.0 0.00 0.00 0.00 44 1016.0
20260508182937 66 136 0.0 8.0 0.00 0.00 0.00 43 1016.1
20260508181941 65 136 2.0 10.0 0.00 0.00 0.00 46 1016.2
20260508181003 65 136 5.0 11.0 0.00 0.00 0.00 45 1016.4
20260508175948 65 136 4.0 11.0 0.00 0.00 0.00 44 1016.4
20260508174935 65 136 4.0 12.0 0.00 0.00 0.00 43 1016.4
20260508173938 64 136 7.0 11.0 0.00 0.00 0.00 46 1016.4
20260508172941 64 136 7.0 15.0 0.00 0.00 0.00 47 1016.4
20260508171947 63 142 8.0 13.0 0.00 0.00 0.00 46 1016.4
20260508170951 63 142 10.0 14.0 0.00 0.00 0.00 47 1016.3
20260508165952 63 142 6.0 10.0 0.00 0.00 0.00 48 1016.2
20260508164938 63 142 8.0 14.0 0.00 0.00 0.00 48 1016.2
20260508163935 63 143 8.0 13.0 0.00 0.00 0.00 48 1016.1
20260508162938 63 140 8.0 16.0 0.00 0.00 0.00 48 1016.0
20260508161943 63 128 7.0 11.0 0.00 0.00 0.00 46 1015.9
20260508160950 62 128 3.0 14.0 0.00 0.00 0.00 47 1015.8
20260508155934 62 95 8.0 13.0 0.00 0.00 0.00 46 1015.8
20260508154935 62 48 5.0 10.0 0.00 0.00 0.00 46 1015.9
20260508153945 60 21 0.0 0.0 0.00 0.00 0.00 46 1015.8
20260508152947 59 22 0.0 0.0 0.00 0.00 0.00 53 1015.9
20260508151933 58 21 0.0 0.0 0.00 0.00 0.00 48 1015.9
20260508150936 58 21 0.0 0.0 0.00 0.00 0.00 52 1015.8
20260508145943 57 22 0.0 4.0 0.00 0.00 0.00 48 1015.6
20260508144945 56 21 1.0 5.0 0.00 0.00 0.00 49 1015.5
20260508143930 56 22 0.0 11.0 0.00 0.00 0.00 51 1015.5
20260508142936 55 22 2.0 11.0 0.00 0.00 0.00 51 1015.4
20260508141941 54 22 0.0 0.0 0.00 0.00 0.00 50 1015.3
20260508140943 54 22 0.0 0.0 0.00 0.00 0.00 52 1015.2
20260508135944 54 22 0.0 6.0 0.00 0.00 0.00 52 1015.2
20260508133942 54 22 0.0 8.0 0.00 0.00 0.00 51 1015.3
20260508133001 54 21 0.0 3.0 0.00 0.00 0.00 55 1015.4
20260508132004 53 22 0.0 6.0 0.00 0.00 0.00 55 1015.4
20260508130946 52 22 0.0 0.0 0.00 0.00 0.00 51 1015.4
20260508130010 52 21 0.0 0.0 0.00 0.00 0.00 51 1015.3
20260508124932 52 21 0.0 0.0 0.00 0.00 0.00 47 1015.2
20260508123937 51 21 0.0 0.0 0.00 0.00 0.00 46 1015.2
20260508122947 50 22 0.0 0.0 0.00 0.00 0.00 45 1015.0
20260508121950 50 21 0.0 0.0 0.00 0.00 0.00 46 1014.8
20260508120933 50 22 0.0 0.0 0.00 0.00 0.00 47 1014.9
20260508115936 51 22 0.0 0.0 0.00 0.00 0.00 47 1014.7
20260508114943 51 21 0.0 0.0 0.00 0.00 0.00 46 1014.6
20260508113949 51 22 0.0 0.0 0.00 0.00 0.00 44 1014.6
20260508112932 51 22 0.0 0.0 0.00 0.00 0.00 45 1014.4
20260508111935 51 22 0.0 0.0 0.00 0.00 0.00 44 1014.3
20260508110940 52 22 1.0 6.0 0.00 0.00 0.00 45 1014.0
20260508104949 52 21 0.0 6.0 0.00 0.00 0.00 45 1014.0
20260508103947 52 22 0.0 0.0 0.00 0.00 0.00 46 1014.0
20260508102949 52 22 0.0 3.0 0.00 0.00 0.00 46 1014.0
20260508101948 52 22 1.0 5.0 0.00 0.00 0.00 46 1014.1
20260508100948 52 21 2.0 6.0 0.00 0.00 0.00 47 1014.1
20260508095930 52 21 0.0 3.0 0.00 0.00 0.00 45 1014.2
20260508094936 52 22 0.0 7.0 0.00 0.00 0.00 41 1014.3
20260508093946 53 21 0.0 0.0 0.00 0.00 0.00 48 1014.1
20260508092948 54 22 0.0 6.0 0.00 0.00 0.00 45 1014.1
20260508091931 53 26 4.0 9.0 0.00 0.00 0.00 45 1014.1
20260508090934 53 36 0.0 0.0 0.00 0.00 0.00 45 1014.0
20260508085941 54 36 0.0 0.0 0.00 0.00 0.00 43 1014.0
20260508084947 54 36 0.0 0.0 0.00 0.00 0.00 44 1014.0
20260508083949 55 36 0.0 6.0 0.00 0.00 0.00 44 1014.1
20260508082932 54 36 1.0 8.0 0.00 0.00 0.00 46 1014.1
20260508081939 54 36 0.0 0.0 0.00 0.00 0.00 45 1014.1
20260508075949 55 36 0.0 0.0 0.00 0.00 0.00 46 1014.1
20260508075009 55 36 0.0 0.0 0.00 0.00 0.00 46 1014.1
20260508073938 55 36 0.0 0.0 0.00 0.00 0.00 45 1014.1
20260508072954 55 36 0.0 0.0 0.00 0.00 0.00 48 1014.1
20260508071935 54 36 0.0 0.0 0.00 0.00 0.00 47 1014.1
20260508070954 54 36 0.0 0.0 0.00 0.00 0.00 47 1013.9
20260508065946 54 36 0.0 0.0 0.00 0.00 0.00 49 1013.9
20260508065012 54 36 0.0 0.0 0.00 0.00 0.00 50 1013.9
20260508063938 55 36 0.0 0.0 0.00 0.00 0.00 50 1013.8
20260508063000 55 36 0.0 0.0 0.00 0.00 0.00 51 1013.8
20260508061942 56 36 0.0 0.0 0.00 0.00 0.00 51 1013.8
20260508055940 57 36 0.0 0.0 0.00 0.00 0.00 49 1013.6
20260508054943 58 36 0.0 6.0 0.00 0.00 0.00 49 1013.5
20260508053950 58 38 1.0 7.0 0.00 0.00 0.00 46 1013.3
20260508052932 58 42 0.0 1.0 0.00 0.00 0.00 47 1013.3
20260508051935 59 42 0.0 5.0 0.00 0.00 0.00 48 1013.2
20260508050939 59 42 2.0 5.0 0.00 0.00 0.00 47 1013.2
20260508045944 58 71 1.0 4.0 0.00 0.00 0.00 48 1013.2
20260508044958 58 88 0.0 0.0 0.00 0.00 0.00 49 1013.1
20260508043953 57 88 0.0 0.0 0.00 0.00 0.00 51 1013.1
20260508042951 57 87 0.0 0.0 0.00 0.00 0.00 52 1013.1
20260508042013 57 88 0.0 0.0 0.00 0.00 0.00 51 1013.1
20260508040936 57 88 0.0 0.0 0.00 0.00 0.00 52 1013.1
20260508035936 57 88 0.0 0.0 0.00 0.00 0.00 54 1013.2
20260508034937 57 88 0.0 0.0 0.00 0.00 0.00 56 1013.1
20260508034001 59 87 0.0 0.0 0.00 0.00 0.00 56 1013.0
20260508032942 61 88 0.0 0.0 0.00 0.00 0.00 50 1013.0
20260508031929 62 88 0.0 0.0 0.00 0.00 0.00 48 1012.9
20260508030936 64 87 0.0 0.0 0.00 0.00 0.00 47 1012.8
20260508025938 65 88 0.0 0.0 0.00 0.00 0.00 47 1012.7
20260508024941 67 87 0.0 0.0 0.00 0.00 0.00 48 1012.6
20260508023931 68 88 0.0 0.0 0.00 0.00 0.00 49 1012.5
20260508022955 70 87 0.0 0.0 0.00 0.00 0.00 46 1012.5
20260508021939 71 88 0.0 0.0 0.00 0.00 0.00 41 1012.4
20260508021001 73 88 0.0 0.0 0.00 0.00 0.00 44 1012.4
20260508015951 75 88 0.0 0.0 0.00 0.00 0.00 45 1012.4
20260508014933 76 88 0.0 0.0 0.00 0.00 0.00 45 1012.4
20260508013947 76 88 0.0 0.0 0.00 0.00 0.00 47 1012.4
20260508013002 76 87 0.0 0.0 0.00 0.00 0.00 44 1012.4
20260508011942 75 88 0.0 0.0 0.00 0.00 0.00 35 1012.4
20260508010943 75 88 0.0 0.0 0.00 0.00 0.00 33 1012.5
20260508005943 76 91 0.0 0.0 0.00 0.00 0.00 31 1012.6
20260508004943 76 92 0.0 8.0 0.00 0.00 0.00 27 1012.7
20260508003943 76 91 3.0 8.0 0.00 0.00 0.00 27 1012.7
20260508002932 77 91 0.0 7.0 0.00 0.00 0.00 30 1012.8